Regional Weather Roundup
Issued by NWS

Home | Current Version | Previous Version | Text Only | Print | Product List | Glossary On
Versions: 1 2 3 4 5 6 7 8 9 10 11 12 13 14 15 16 17 18 19 20 21 22 23 24 25 26 27 28
000
ASUS42 KKEY 180710
RWRKEY

FLORIDA REGIONAL WEATHER ROUNDUP FOR THE FLORIDA KEYS
NATIONAL WEATHER SERVICE KEY WEST FLORIDA
200 AM EST WED JAN 18 2017

...SOUTH FLORIDA AND THE KEYS...

CITY           SKY/WX    TMP DP  RH WIND       PRES   REMARKS
FORT MYERS     CLEAR     64  61  90 CALM      30.19F
SW REGIONAL AP CLEAR     62  58  86 CALM      30.20F
NAPLES         CLEAR     66  61  84 E3        30.19F
MIAMI          PTCLDY    70  61  73 CALM      30.20F
WEST KENDALL   CLEAR     65  61  87 CALM      30.19F
HOMESTEAD      PTCLDY    65  65 100 CALM      30.18F
MARATHON       PTCLDY    77  65  66 E6        30.17F
BOCA CHICA NAS PTCLDY    73  67  81 NE5       30.17F
KEY WEST INTL  PTCLDY    75  67  76 E13       30.17F

...INTERNATIONAL WEATHER...

CITY           SKY/WX    TMP DP  RH WIND       PRES   REMARKS
NASSAU BAHAMAS   N/A     70  64  83 E3        30.19S
CANCUN MEXICO  PTCLDY    77  70  78 E7        30.07F
COZUMEL MEXICO PTCLDY    72  70  94 CALM      30.05F

ADJACENT COASTAL WATERS...

STATION/POSITION TIME  SKY/WX   TEMP    WIND        PRES    WAVE
                                AIR SEA DIR/SP/G            HT/PER
                 (UTC)          (F)     (DEG/KT/KT) (MB)    (FT/S)
PULASKI SHOAL LI 0700            74     100/ 13/ 14 1021.0F
SAND KEY         0650            76     130/ 15/ 17 1022.1F
LONG KEY         0600            74 72  110/  8/  9 1022.3F
MOLASSES REEF    0600                   100/ 10       N/A
FOWEY ROCKS      0600            75 75  100/ 11/ 11 1023.5F

$$




USA.gov is the U.S. government's official web portal to all federal, state and local government web resources and services.